| time (UTC) | temp C | wind direction | speed KPH | gust KPH | rain 1hr cm | rain 24hr cm | rain mn cm | humidity % | barometer mb |
| 20260504001517 | 12 | 203 | 1.6 | 16.1 | 0.00 | 0.00 | 0.00 | 48 | 1012.1 |
| 20260504000517 | 12 | 0.0 | 9.7 | 0.00 | 0.00 | 0.00 | 48 | 1011.9 | |
| 20260503235517 | 12 | 0.0 | 9.7 | 0.00 | 0.00 | 0.00 | 47 | 1012.0 | |
| 20260503234517 | 13 | 248 | 1.6 | 11.3 | 0.00 | 0.00 | 0.00 | 47 | 1011.9 |
| 20260503233517 | 13 | 0.0 | 9.7 | 0.00 | 0.00 | 0.00 | 47 | 1011.9 | |
| 20260503232517 | 13 | 0.0 | 4.8 | 0.00 | 0.00 | 0.00 | 45 | 1012.0 | |
| 20260503231517 | 13 | 0.0 | 1.6 | 0.00 | 0.00 | 0.00 | 46 | 1012.0 | |
| 20260503230517 | 13 | 0.0 | 3.2 | 0.00 | 0.00 | 0.00 | 45 | 1012.1 | |
| 20260503225517 | 13 | 180 | 1.6 | 16.1 | 0.00 | 0.00 | 0.00 | 46 | 1011.9 |
| 20260503224517 | 13 | 0.0 | 11.3 | 0.00 | 0.00 | 0.00 | 46 | 1012.0 | |
| 20260503223517 | 13 | 248 | 1.6 | 19.3 | 0.00 | 0.00 | 0.00 | 44 | 1012.0 |
| 20260503222517 | 13 | 0.0 | 1.6 | 0.00 | 0.00 | 0.00 | 46 | 1012.1 | |
| 20260503221517 | 13 | 203 | 1.6 | 12.9 | 0.00 | 0.00 | 0.00 | 43 | 1012.1 |
| 20260503220517 | 13 | 0.0 | 9.7 | 0.00 | 0.00 | 0.00 | 44 | 1012.3 | |
| 20260503215517 | 13 | 270 | 3.2 | 17.7 | 0.00 | 0.00 | 0.00 | 45 | 1012.2 |
| 20260503214516 | 13 | 0.0 | 14.5 | 0.00 | 0.00 | 0.00 | 46 | 1012.1 | |
| 20260503213517 | 13 | 0.0 | 9.7 | 0.00 | 0.00 | 0.00 | 44 | 1011.9 | |
| 20260503212517 | 14 | 270 | 4.8 | 20.9 | 0.00 | 0.00 | 0.00 | 42 | 1011.9 |
| 20260503211516 | 15 | 225 | 1.6 | 16.1 | 0.00 | 0.00 | 0.00 | 43 | 1012.0 |
| 20260503210517 | 14 | 203 | 4.8 | 24.1 | 0.00 | 0.00 | 0.00 | 43 | 1011.9 |
| 20260503205516 | 15 | 203 | 3.2 | 24.1 | 0.00 | 0.00 | 0.00 | 40 | 1012.0 |
| 20260503204557 | 15 | 248 | 1.6 | 19.3 | 0.00 | 0.00 | 0.00 | 42 | 1012.1 |
| 20260503203516 | 15 | 270 | 3.2 | 22.5 | 0.00 | 0.00 | 0.00 | 44 | 1012.2 |
| 20260503202516 | 13 | 270 | 8.0 | 25.7 | 0.00 | 0.00 | 0.00 | 40 | 1012.3 |
| 20260503201517 | 14 | 270 | 11.3 | 25.7 | 0.00 | 0.00 | 0.00 | 36 | 1012.4 |
| 20260503200517 | 15 | 270 | 1.6 | 20.9 | 0.00 | 0.00 | 0.00 | 40 | 1012.4 |
| 20260503195517 | 14 | 270 | 8.0 | 24.1 | 0.00 | 0.00 | 0.00 | 38 | 1012.6 |
| 20260503194516 | 15 | 270 | 3.2 | 22.5 | 0.00 | 0.00 | 0.00 | 41 | 1012.9 |
| 20260503193516 | 14 | 293 | 3.2 | 24.1 | 0.00 | 0.00 | 0.00 | 41 | 1013.0 |
| 20260503192537 | 13 | 270 | 4.8 | 25.7 | 0.00 | 0.00 | 0.00 | 42 | 1013.1 |
| 20260503191536 | 14 | 270 | 8.0 | 27.4 | 0.00 | 0.00 | 0.00 | 41 | 1013.4 |
| 20260503190516 | 14 | 0.0 | 11.3 | 0.00 | 0.00 | 0.00 | 46 | 1013.5 | |
| 20260503185516 | 13 | 270 | 1.6 | 11.3 | 0.00 | 0.00 | 0.00 | 47 | 1013.4 |
| 20260503184537 | 14 | 270 | 1.6 | 16.1 | 0.00 | 0.00 | 0.00 | 43 | 1013.6 |
| 20260503183516 | 13 | 270 | 12.9 | 25.7 | 0.00 | 0.00 | 0.00 | 43 | 1013.8 |
| 20260503182537 | 13 | 0.0 | 14.5 | 0.00 | 0.00 | 0.00 | 44 | 1013.8 | |
| 20260503181516 | 13 | 270 | 1.6 | 16.1 | 0.00 | 0.00 | 0.00 | 45 | 1014.1 |
| 20260503180516 | 13 | 270 | 4.8 | 16.1 | 0.00 | 0.00 | 0.00 | 45 | 1014.3 |
| 20260503175516 | 13 | 270 | 1.6 | 22.5 | 0.00 | 0.00 | 0.00 | 43 | 1014.3 |
| 20260503174516 | 13 | 180 | 8.0 | 32.2 | 0.00 | 0.00 | 0.00 | 46 | 1014.5 |
| 20260503173516 | 13 | 270 | 9.7 | 29.0 | 0.00 | 0.00 | 0.00 | 47 | 1014.6 |
| 20260503172537 | 12 | 225 | 4.8 | 17.7 | 0.00 | 0.00 | 0.00 | 46 | 1014.7 |
| 20260503171516 | 12 | 270 | 4.8 | 33.8 | 0.00 | 0.00 | 0.00 | 45 | 1014.7 |
| 20260503170516 | 12 | 270 | 1.6 | 17.7 | 0.00 | 0.00 | 0.00 | 50 | 1014.9 |
| 20260503150516 | 10 | 270 | 4.8 | 22.5 | 0.00 | 0.03 | 0.00 | 52 | 1015.9 |
| 20260503130516 | 6 | 270 | 3.2 | 9.7 | 0.00 | 0.03 | 0.00 | 72 | 1016.3 |
| 20260503110516 | 0 | 180 | 4.8 | 8.0 | 0.00 | 0.03 | 0.00 | 90 | 1015.3 |
| 20260503081515 | 0 | 0.0 | 1.6 | 0.00 | 0.03 | 0.00 | 89 | 1015.2 | |
| 20260503080516 | 0 | 0.0 | 0.0 | 0.00 | 0.03 | 0.00 | 90 | 1015.3 | |
| 20260503072518 | -1 | 0.0 | 0.0 | 0.00 | 0.03 | 0.00 | 90 | 1015.3 | |
| 20260503071538 | -1 | 0.0 | 0.0 | 0.00 | 0.03 | 0.00 | 90 | 1015.2 | |
| 20260503070518 | -1 | 0.0 | 0.0 | 0.00 | 0.03 | 0.00 | 89 | 1015.3 | |
| 20260503054518 | 0 | 0.0 | 0.0 | 0.00 | 0.03 | 0.00 | 88 | 1015.7 | |
| 20260503053518 | 0 | 0.0 | 0.0 | 0.00 | 0.03 | 0.00 | 88 | 1015.5 | |
| 20260503052518 | 0 | 0.0 | 0.0 | 0.00 | 0.03 | 0.00 | 88 | 1015.7 | |
| 20260503051518 | 0 | 0.0 | 0.0 | 0.00 | 0.03 | 0.00 | 87 | 1015.6 | |
| 20260503050537 | 0 | 0.0 | 0.0 | 0.00 | 0.03 | 0.00 | 87 | 1015.8 | |
| 20260503045517 | 0 | 0.0 | 0.0 | 0.00 | 0.03 | 0.00 | 86 | 1015.8 | |
| 20260503044517 | 0 | 0.0 | 0.0 | 0.00 | 0.03 | 0.00 | 85 | 1015.8 | |
| 20260503043517 | 0 | 270 | 1.6 | 3.2 | 0.00 | 0.03 | 0.00 | 85 | 1015.8 |
| 20260503042517 | 0 | 0.0 | 0.0 | 0.00 | 0.03 | 0.00 | 84 | 1015.9 | |
| 20260503041517 | 0 | 0.0 | 1.6 | 0.00 | 0.03 | 0.00 | 84 | 1016.0 | |
| 20260503040537 | 0 | 0.0 | 0.0 | 0.00 | 0.03 | 0.00 | 83 | 1015.9 | |
| 20260503035517 | 1 | 0.0 | 0.0 | 0.00 | 0.03 | 0.03 | 83 | 1016.0 | |
| 20260503034517 | 1 | 0.0 | 0.0 | 0.00 | 0.03 | 0.03 | 82 | 1016.1 | |
| 20260503033517 | 1 | 0.0 | 1.6 | 0.00 | 0.03 | 0.03 | 81 | 1016.0 | |
| 20260503032517 | 1 | 0.0 | 3.2 | 0.00 | 0.03 | 0.03 | 81 | 1016.1 | |
| 20260503031517 | 1 | 0.0 | 0.0 | 0.00 | 0.03 | 0.03 | 80 | 1016.2 | |
| 20260503030517 | 1 | 0.0 | 3.2 | 0.00 | 0.03 | 0.03 | 79 | 1016.3 | |
| 20260503025517 | 2 | 0.0 | 0.0 | 0.00 | 0.03 | 0.03 | 78 | 1016.3 | |
| 20260503024517 | 2 | 270 | 3.2 | 4.8 | 0.00 | 0.03 | 0.03 | 77 | 1016.3 |
| 20260503023517 | 2 | 0.0 | 4.8 | 0.00 | 0.03 | 0.03 | 77 | 1016.4 | |
| 20260503022517 | 2 | 248 | 3.2 | 4.8 | 0.00 | 0.03 | 0.03 | 76 | 1016.4 |
| 20260503021517 | 2 | 270 | 3.2 | 6.4 | 0.00 | 0.03 | 0.03 | 75 | 1016.4 |
| 20260503020517 | 2 | 270 | 1.6 | 6.4 | 0.00 | 0.03 | 0.03 | 74 | 1016.3 |
| 20260503015517 | 3 | 0.0 | 3.2 | 0.00 | 0.03 | 0.03 | 74 | 1016.5 | |
| 20260503014517 | 3 | 0.0 | 4.8 | 0.00 | 0.03 | 0.03 | 73 | 1016.5 | |
| 20260503013537 | 3 | 270 | 1.6 | 4.8 | 0.00 | 0.03 | 0.03 | 72 | 1016.5 |
| 20260503012517 | 3 | 270 | 3.2 | 9.7 | 0.00 | 0.03 | 0.03 | 72 | 1016.3 |
| 20260503011517 | 3 | 293 | 1.6 | 6.4 | 0.00 | 0.03 | 0.03 | 71 | 1016.4 |
| 20260503010517 | 3 | 0.0 | 1.6 | 0.00 | 0.03 | 0.03 | 71 | 1016.4 | |
| 20260503005517 | 3 | 270 | 3.2 | 9.7 | 0.00 | 0.03 | 0.03 | 69 | 1016.3 |
| 20260503004537 | 3 | 293 | 3.2 | 6.4 | 0.00 | 0.03 | 0.03 | 69 | 1016.2 |
| 20260503003517 | 3 | 270 | 3.2 | 8.0 | 0.00 | 0.03 | 0.03 | 68 | 1016.2 |
| 20260503002517 | 3 | 270 | 4.8 | 11.3 | 0.00 | 0.03 | 0.03 | 68 | 1016.2 |